User: anonymous   Login
Location: Unspecified
(0.0000°N, 0.0000°E)
Time: 05:50:23
(UTC+01:00)
Language:

ARIANE 5 R/B - Orbit

View from above orbital plane
View from above orbital plane
View from above satellite
View from above satellite

Ground track
Ground track

The orbit data is extracted from the following two-line orbital elements,

1 29646U 06054D   14325.35426730  .00014003  00000-0  32649-2 0  7843
2 29646 002.9170 033.6155 7145258 179.2083 182.6960 02.45597669 68350
Epoch (UTC): 21 November 2014 08:30:08
Eccentricity: 0.7145258
inclination: 2.9170°
perigee height: 246 km
apogee height: 33407 km
right ascension of ascending node: 33.6155°
argument of perigee: 179.2083°
revolutions per day: 2.45597669
mean anomaly at epoch: 182.6960°
orbit number at epoch: 6835

The dashed part of the orbit path shows where the satellite is in the earth's shadow,  

DLR